Flag for Germany Weather past 2 weeks in Lahr, Baden-Württemberg, Germany

Now
60 °F

Passing clouds.


Feels Like: 60 °F
Forecast: 38 / 53 °F
Wind: 3 mph from North

Location: Lahr


UV Index: 3 (Moderate)

Visibility: 41 mi


Pressure: 30.14 "Hg

Humidity: 29%

Dew point: 28 °F

Location of LahrLocation

Historic Weather in Lahr

°F

Lahr temperature yesterday

Maximum temperature yesterday: 58 °F (at 5:00 PM)
Minimum temperature yesterday: 31 °F (at 7:00 AM)
Average temperature yesterday: 46 °F

Past Weeks' High & Low Weather Summary

 TemperatureHumidityPressure
High74 °F (Apr 2, 4:00 PM)99% (Apr 5, 10:00 PM)30.39 "Hg (Apr 5, 10:00 PM)
Low31 °F (Apr 17, 6:00 AM)28% (Apr 2, 6:00 PM)29.61 "Hg (Apr 3, 6:00 PM)
Average54 °F66%30.06 "Hg
* Reported Apr 2 2:00 PM — Apr 17 2:00 PM, Lahr, Weather by CustomWeather, © 2014

Note: Actual official high and low records may vary slightly from our data, if they occured in-between our weather recording intervals... More about our weather records

Advertising

Historic Weather Conditions — Data for Previous 24 hours

 ConditionsComfort  
Time TempWeatherWind HumidityBarometerVisibility
2:00 PM
Apr 17
60 °FPassing clouds.3 mph29%30.14 "Hg40 mi
1:00 PM59 °FPassing clouds.2 mph31%30.16 "Hg40 mi
12:00 PM57 °FPassing clouds.2 mph31%30.20 "Hg43 mi
11:00 AM52 °FPassing clouds.2 mph45%30.23 "Hg40 mi
10:00 AM47 °FPassing clouds.2 mph67%30.25 "Hg43 mi
9:00 AM41 °FPassing clouds.2 mph77%30.27 "Hg47 mi
8:00 AM36 °FPassing clouds.1 mph82%30.29 "Hg47 mi
7:00 AM32 °FPassing clouds.1 mph89%30.28 "Hg43 mi
6:00 AM31 °FPassing clouds.2 mph87%30.29 "Hg37 mi
5:00 AM40 °FClear.2 mph71%30.29 "Hg19 mi
4:00 AM34 °FClear.1 mph85%30.31 "Hg18 mi
3:00 AM35 °FClear.No wind84%30.32 "Hg19 mi
2:00 AM35 °FClear.1 mph78%30.34 "Hg25 mi
1:00 AM38 °FClear.1 mph74%30.34 "Hg28 mi
12:00 AM39 °FClear.1 mph70%30.34 "Hg31 mi
11:00 PM
Apr 16
43 °FClear.2 mph60%30.34 "Hg31 mi
10:00 PM45 °FClear.1 mph58%30.34 "Hg40 mi
9:00 PM49 °FClear.3 mph43%30.34 "Hg47 mi
8:00 PM54 °FPassing clouds.5 mph35%30.32 "Hg47 mi
7:00 PM56 °FPassing clouds.7 mph33%30.31 "Hg47 mi
6:00 PM58 °FPassing clouds.6 mph32%30.31 "Hg43 mi
5:00 PM58 °FPassing clouds.6 mph32%30.31 "Hg40 mi
4:00 PM57 °FPassing clouds.7 mph39%30.32 "Hg40 mi
3:00 PM55 °FPassing clouds.8 mph40%30.34 "Hg37 mi
Weather by CustomWeather, © 2014

See weather overview